Home > Weather > Racine > Past weeks

Flag for U.S.A. Weather for the Past 2 Weeks in Racine, Wisconsin, U.S.A.

Now
15 °F

Overcast.


Feels Like: 1 °F
Forecast: 10 / 15 °F
Wind: 13 mph from West

Location: Batten International Airport

Current Time: Feb 10, 2016 at 2:14:35 PM

Latest Report: Feb 10, 2016 at 12:53 PM


Visibility: 10 mi

Pressure: 30.05 "Hg

Humidity: 49%

Dew point: -1 °F

Location of RacineLocation

Historic Weather in Racine — Graph

°F

Racine Temperature Yesterday

Maximum temperature yesterday: 19 °F (at 12:53 AM)
Minimum temperature yesterday: 13 °F (at 7:53 AM)
Average temperature yesterday: 17 °F

High & Low Weather Summary for the Past Weeks

 TemperatureHumidityPressure
High44 °F (Jan 30, 1:53 PM)97% (Feb 3, 12:53 AM)30.40 "Hg (Feb 3, 12:53 AM)
Low8 °F (Feb 10, 6:53 AM)47% (Feb 4, 3:53 PM)29.46 "Hg (Feb 3, 12:53 AM)
Average30 °F73%29.91 "Hg
* Reported Jan 26 12:53 PM — Feb 10 12:53 PM, Racine, Weather by CustomWeather, © 2016

Note: Actual official high and low records may vary slightly from our data, if they occured in-between our weather recording intervals... More about our weather records

Advertising

Racine Weather History for the Previous 24 Hours

 ConditionsComfort  
Time TempWeatherWind HumidityBarometerVisibility
12:53 PM
Wed, Feb 10
15 °FOvercast.13 mph49%30.05 "Hg10 mi
11:53 AM15 °FOvercast.14 mph51%30.06 "Hg10 mi
10:53 AM13 °FOvercast.13 mph54%30.07 "Hg10 mi
9:53 AM13 °FOvercast.13 mph56%30.07 "Hg10 mi
8:53 AM11 °FSunny.14 mph56%30.06 "Hg10 mi
7:53 AM9 °FSunny.7 mph64%30.05 "Hg10 mi
6:53 AM8 °FClear.3 mph66%30.02 "Hg10 mi
5:53 AM9 °FOvercast.5 mph64%30.02 "Hg10 mi
4:53 AM9 °FClear.5 mph64%30.01 "Hg10 mi
3:53 AM10 °FPassing clouds.7 mph61%30.01 "Hg10 mi
2:53 AM11 °FPassing clouds.8 mph61%30.00 "Hg10 mi
1:53 AM12 °FOvercast.10 mph61%29.99 "Hg10 mi
12:53 AM13 °FPassing clouds.9 mph64%29.99 "Hg10 mi
11:53 PM
Tue, Feb 9
14 °FMostly cloudy.9 mph67%29.97 "Hg10 mi
10:53 PM15 °FLight snow. Mostly cloudy.8 mph74%29.97 "Hg5 mi
9:53 PM15 °FLight snow. Mostly cloudy.10 mph74%29.97 "Hg8 mi
8:53 PM15 °FLight snow. Mostly cloudy.12 mph74%29.97 "Hg4 mi
7:53 PM15 °FLight snow. Mostly cloudy.10 mph77%29.97 "Hg6 mi
6:53 PM16 °FMostly cloudy.8 mph67%29.96 "Hg9 mi
5:53 PM16 °FPassing clouds.9 mph67%29.95 "Hg10 mi
4:53 PM17 °FLight snow. Overcast.9 mph64%29.93 "Hg8 mi
4:00 PM17 °FMostly cloudy.14 mph64%29.88 "Hg9 mi
2:53 PM17 °FOvercast.12 mph62%29.88 "Hg10 mi
Weather by CustomWeather, © 2016

See weather overviewHow to use our weather pages